Weather History for KUCP - March, 2013

Change the Weather History Date:

Thursday, March 14, 2013

  Actual Average Record
Temperature  
Mean Temperature 29 °F -  
Max Temperature 34 °F 48 °F 76 °F (1927)
Min Temperature 24 °F 27 °F 10 °F (1968)
Degree Days  
Heating Degree Days 36    
Moisture  
Dew Point 17 °F    
Average Humidity 64    
Maximum Humidity 86    
Minimum Humidity 44    
Precipitation  
Precipitation 0.00 in - - ()
Sea Level Pressure  
Sea Level Pressure 30.21 in    
Wind  
Wind Speed 9 mph (West)    
Max Wind Speed 16 mph    
Max Gust Speed -    
Visibility 9 miles    
Events Snow    
Averages and records for this station are not official NWS values.
T = Trace of Precipitation, MM = Missing Value Source: NWS Daily Summary

Daily Weather History Graph

Daily Weather History Graph

Search for Another Location

Airport or City:

Trip Planner

Search our weather history database for the weather conditions in past years. The results will help you decide how hot, cold, wet, or windy it might be!

Date:

Astronomy

Mar. 14, 2013 Rise Set
Actual Time 7:34 AM EDT 7:27 PM EDT
Civil Twilight 7:07 AM EDT 7:54 PM EDT
Nautical Twilight 6:35 AM EDT 8:26 PM EDT
Astronomical Twilight 6:03 AM EDT 8:59 PM EDT
Moon 8:45 AM EDT (3/14) 10:44 PM EDT (3/14)
Length of Visible Light 12h 47m
Length of Day
11h 52m
Waxing Crescent, 9% of the Moon is Illuminated
Mar 14
Waxing Crescent
Mar 19
First Quarter
Mar 27
Full
Apr 3
Last Quarter
Apr 10
New

Hourly Weather History & Observations

Time (EDT) Temp. Windchill Dew Point Humidity Pressure Visibility Wind Dir Wind Speed Gust Speed Precip Events Conditions
12:31 AM 24.8 °F 14.6 °F 21.2 °F 86% 30.11 in 5.0 mi West 10.4 mph - 0.00 in Snow Light Snow
12:40 AM 24.8 °F 13.4 °F 21.2 °F 86% 30.11 in 7.0 mi WSW 12.7 mph - 0.00 in Snow Light Snow
12:56 AM 25.2 °F 16.5 °F 21.0 °F 84% 30.20 in 3.0 mi West 8.1 mph - 0.00 in Snow Light Snow
1:00 AM 24.8 °F 14.6 °F 21.2 °F 86% 30.11 in 2.0 mi West 10.4 mph - 0.00 in Snow Light Snow
1:03 AM 24.8 °F 16.1 °F 21.2 °F 86% 30.11 in 1.8 mi West 8.1 mph - 0.00 in Snow Light Snow
1:09 AM 24.8 °F 16.9 °F 21.2 °F 86% 30.11 in 3.0 mi West 6.9 mph - 0.00 in Snow Light Snow
1:46 AM 26.6 °F 16.2 °F 19.4 °F 74% 30.11 in 10.0 mi WSW 11.5 mph - 0.00 in Snow Light Snow
1:56 AM 26.1 °F 15.6 °F 20.1 °F 78% 30.20 in 8.0 mi West 11.5 mph - 0.00 in Snow Light Snow
2:56 AM 27.1 °F 16.9 °F 15.1 °F 60% 30.21 in 10.0 mi West 11.5 mph - 0.00 in   Overcast
3:56 AM 26.1 °F 13.6 °F 14.0 °F 60% 30.20 in 10.0 mi West 16.1 mph - 0.00 in Snow Light Snow
6:56 AM 25.2 °F 17.3 °F 14.0 °F 63% 30.25 in 10.0 mi West 6.9 mph - 0.00 in   Mostly Cloudy
7:56 AM 25.2 °F 16.5 °F 14.0 °F 63% 30.27 in 10.0 mi West 8.1 mph - 0.00 in   Overcast
8:56 AM 25.2 °F 16.5 °F 15.1 °F 66% 30.28 in 10.0 mi WSW 8.1 mph - N/A   Partly Cloudy
9:56 AM 27.1 °F 17.5 °F 15.1 °F 60% 30.28 in 10.0 mi West 10.4 mph - N/A   Scattered Clouds
10:56 AM 28.0 °F 18.1 °F 16.2 °F 61% 30.28 in 10.0 mi West 11.5 mph - N/A   Overcast
11:56 AM 29.1 °F 20.0 °F 16.2 °F 58% 30.28 in 10.0 mi West 10.4 mph - 0.00 in   Mostly Cloudy
12:56 PM 32.0 °F 23.6 °F 16.2 °F 52% 30.26 in 10.0 mi WNW 10.4 mph - N/A   Mostly Cloudy
1:56 PM 34.0 °F 25.0 °F 17.1 °F 50% 30.25 in 10.0 mi West 12.7 mph - N/A   Scattered Clouds
2:56 PM 34.9 °F 27.1 °F 16.2 °F 46% 30.23 in 10.0 mi West 10.4 mph - N/A   Scattered Clouds
3:56 PM 34.9 °F 25.7 °F 15.1 °F 44% 30.22 in 10.0 mi West 13.8 mph - N/A   Clear
4:56 PM 34.9 °F 27.7 °F 16.2 °F 46% 30.21 in 10.0 mi WNW 9.2 mph - N/A   Clear
5:56 PM 34.9 °F 26.6 °F 16.2 °F 46% 30.22 in 10.0 mi WNW 11.5 mph - N/A   Clear
6:56 PM 32.0 °F 24.8 °F 13.1 °F 46% 30.23 in 10.0 mi NW 8.1 mph - N/A   Clear
7:56 PM 29.1 °F 25.4 °F 14.0 °F 53% 30.23 in 10.0 mi NW 3.5 mph - N/A   Clear
8:56 PM 28.0 °F - 13.1 °F 54% 30.22 in 10.0 mi Calm Calm - N/A   Clear
9:56 PM 26.1 °F - 14.0 °F 60% 30.23 in 10.0 mi Calm Calm - N/A   Clear
10:56 PM 26.1 °F - 15.1 °F 63% 30.22 in 10.0 mi Calm Calm - N/A   Partly Cloudy
11:56 PM 26.1 °F - 16.2 °F 66% 30.20 in 10.0 mi Calm Calm - N/A   Clear